Regional Weather Roundup
Issued by NWS

Home | Current Version | Previous Version | Text Only | Print | Product List | Glossary Off
Versions: 1 2 3 4 5 6 7 8 9 10 11 12 13 14 15 16 17 18 19 20 21 22 23 24 25 26 27 28 29 30 31 32 33 34 35 36 37 38 39 40 41 42 43 44 45 46 47 48 49 50

000
ASUS43 KBIS 271110
RWRND

NORTH DAKOTA REGIONAL WEATHER ROUNDUP
NATIONAL WEATHER SERVICE BISMARCK ND
600 AM CDT THU JUL 27 2017

NOTE: "FAIR" INDICATES FEW OR NO CLOUDS BELOW 12,000 FEET WITH NO
SIGNIFICANT WEATHER AND/OR OBSTRUCTIONS TO VISIBILITY.


NDZ001>003-009>011-017-271200-
NORTHWEST NORTH DAKOTA

CITY           SKY/WX    TMP DP  RH WIND       PRES   REMARKS
WILLISTON      CLOUDY    69  57  65 NE13G29   30.09R
MINOT          CLOUDY    70  56  61 S14       30.13S
MINOT AFB      PTCLDY    64  58  81 S7        30.11F
$$

NDZ018>021-031>035-040>046-271200-
SOUTHWEST NORTH DAKOTA

CITY           SKY/WX    TMP DP  RH WIND       PRES   REMARKS
BISMARCK       CLOUDY    66  58  75 NE6       30.15R
DICKINSON      CLEAR     62  55  77 SE14      30.09R
GARRISON         N/A     63  62  97 S3        30.18F
HETTINGER ARPT CLEAR     63  52  67 SE8       30.12F
$$

NDZ004>008-012>016-024-026-027-054-271200-
NORTHEAST NORTH DAKOTA

CITY           SKY/WX    TMP DP  RH WIND       PRES   REMARKS
GRAND FORKS    CLEAR     55  55 100 SW5       30.11R
GRND FRKS AFB  CLEAR     53  52  99 W5        30.12R
DEVILS LAKE    PTCLDY    57  57 100 CALM      30.16R FOG
$$

NDZ022-023-025-028>030-036>039-047>053-271200-
SOUTHEAST NORTH DAKOTA

CITY           SKY/WX    TMP DP  RH WIND       PRES   REMARKS
FARGO          CLEAR     58  56  93 NW3       30.12R
JAMESTOWN      CLEAR     55  54  96 CALM      30.14S
$$





USA.gov is the U.S. government's official web portal to all federal, state and local government web resources and services.